Location: Forest Hill
(41.0964°N, 81.4923°W)
Time: 15:16:41
(UTC+00:00)

Daily predictions for brighter satellites

Satellite Brightness Start Highest point End
(mag) Time Altitude Azimuth Time Altitude Azimuth Time Altitude Azimuth
CZ-4B R/B 3.5 12:03:31 10° N 12:06:37 28° WNW 12:09:46 10° SW
ATLAS 5 CENTAUR R/B 2.8 12:04:44 10° W 12:07:35 19° NW 12:10:42 10° N
Cosmos 158 Rocket 4.3 12:03:30 10° NNW 12:08:27 47° WSW 12:13:29 10° S
Cosmos 923 Rocket 4.3 12:03:56 10° NNW 12:09:18 76° ENE 12:14:38 10° SSE
Cosmos 1340 Rocket 4.1 12:06:45 10° WSW 12:09:40 20° WNW 12:12:38 10° NNW
Cosmos 1697 Rocket 4.1 12:05:01 10° S 12:10:19 45° ESE 12:15:39 10° NE
Cosmos 2360 4.2 22:16:07 10° NNW 22:21:53 82° ENE 22:27:36 10° SSE
CZ-2C R/B 3.2 22:20:38 10° SW 22:24:07 24° SSE 22:27:32 10° ESE
Sich 1 3.3 22:20:29 10° N 22:24:38 46° ENE 22:28:47 10° SSE
Cosmos 1634 Rocket 4.1 22:20:08 10° S 22:26:18 59° E 22:32:30 10° NNE
Cosmos 2026 Rocket 4.0 22:23:14 10° N 22:29:16 59° E 22:35:13 10° SSE
Meteor 1-20 Rocket 4.5 22:24:53 10° N 22:30:46 85° W 22:36:35 10° S
ISS -3.5 22:27:36 10° NW 22:30:55 51° NNE 22:34:14 10° ESE
Cosmos 44 Rocket 4.4 22:27:39 10° N 22:31:40 24° NE 22:35:32 10° E
Cosmos 1898 Rocket 3.9 22:26:53 10° NNW 22:32:06 70° WSW 22:37:15 10° S
Cosmos 2195 Rocket 4.5 22:27:30 10° N 22:33:42 77° E 22:39:55 10° SSE
Cosmos 1809 Rocket 4.4 22:28:44 10° N 22:34:50 73° E 22:40:53 10° SSE
Cosmos 1812 3.2 22:31:24 10° SSE 22:34:58 38° E 22:38:34 10° NNE
Cosmos 1805 Rocket 3.5 22:30:52 10° N 22:35:13 80° E 22:39:33 10° S
NOAA 12 4.2 22:32:51 10° SSE 22:38:11 89° WSW 22:43:32 10° NNW
Cosmos 1818 4.2 22:40:33 10° NNW 22:45:31 34° NE 22:50:25 10° ESE
Cosmos 1933 4.3 22:42:15 10° SSW 22:46:11 51° W 22:50:07 10° N
Cosmos 1697 Rocket 3.5 22:42:13 10° NNW 22:47:41 56° WSW 22:53:09 10° S
Meteor 1-26 Rocket 4.5 22:43:00 10° S 22:49:00 88° W 22:55:05 10° N
Cosmos 2322 Rocket 3.5 22:45:29 10° N 22:49:19 18° NE 22:52:57 11° E
Cosmos 1980 Rocket 2.2 22:47:57 10° NNW 22:53:39 82° ENE 22:59:16 10° SSE
CZ-4B R/B 3.9 22:50:10 10° S 22:54:04 50° W 22:57:47 10° NNW
Cosmos 841 Rocket 4.1 22:50:55 10° SW 22:55:58 56° WNW 23:01:03 10° N
CORIOLIS 4.1 22:51:42 10° SSE 22:57:05 80° ENE 23:02:33 10° N
Cosmos 1900 4.2 22:52:24 10° SSW 22:57:15 79° ESE 23:02:08 10° NNE
Cosmos 921 Rocket 3.5 22:53:25 10° SSE 22:57:15 37° E 23:00:52 12° NE
APEX 4.0 22:53:51 10° S 22:57:21 29° ESE 22:59:14 18° ENE
Cosmos 2208 Rocket 4.1 22:55:13 10° S 23:00:33 66° ESE 23:05:58 10° NNE
Tiangong 3.5 23:01:39 10° S 23:02:54 12° SE 23:04:10 10° ESE
COSMOS 2455 3.7 22:57:16 10° SW 23:03:04 49° NW 23:08:56 10° NNE
USA 267 3.6 22:57:02 10° NE 23:03:29 63° NW 23:09:55 10° WSW
Cosmos 2369 4.2 22:57:49 10° NNW 23:03:31 65° WSW 23:09:08 10° S
DEBRIS 3.9 23:02:56 10° S 23:04:49 20° ESE 23:05:58 17° E
Cosmos 372 Rocket 4.3 23:02:31 10° NNW 23:07:46 74° WSW 23:12:59 10° S
Cosmos 1867 4.5 23:03:18 10° S 23:07:57 29° ESE 23:10:44 19° ENE
Cosmos 2082 Rocket 3.0 23:03:52 10° SW 23:09:24 52° WNW 23:14:56 10° NNE
SL-16 R/B 2.9 23:04:42 10° N 23:09:45 32° ENE 23:14:46 10° ESE
H-2A R/B 2.0 23:05:22 10° SSE 23:10:27 63° ENE 23:15:25 10° N
ARGOS 3.5 23:07:41 10° SE 23:12:41 40° ENE 23:17:42 10° N
Meteor 1-5 Rocket 4.3 23:07:15 10° N 23:13:14 75° E 23:19:03 10° SSE
Cosmos 1500 4.2 23:10:15 10° NNW 23:13:51 48° W 23:17:25 10° SSW
COSMO-SKYMED 1 2.8 23:09:52 10° NNE 23:14:04 46° E 23:18:14 10° S
Cosmos 1151 Rocket 3.1 23:10:17 10° S 23:14:35 78° W 23:18:59 10° N
Cosmos 1125 Rocket 4.0 23:10:25 10° N 23:15:15 36° ENE 23:20:05 10° SE
Cosmos 1633 Rocket 2.9 23:11:32 10° N 23:15:55 76° E 23:20:19 10° SSE
Meteor 2-16 Rocket 4.4 23:14:29 10° N 23:20:39 87° E 23:26:47 10° S
X-37B 0.5 23:19:37 10° SW 23:22:27 59° SSE 23:23:02 45° ESE
SL-08 RB Rocket 4.3 23:20:09 10° SE 23:24:17 33° ENE 23:28:22 10° N
Landsat 5 3.8 23:23:02 27° NE 23:24:38 39° E 23:28:18 10° SSE
CZ-2D R/B 3.4 23:22:09 10° S 23:25:57 75° WSW 23:29:48 10° NNW
Cosmos 2278 3.9 23:20:36 10° NNW 23:26:18 77° WSW 23:31:57 10° SSE
USA 306 4.2 23:23:53 10° NNW 23:27:20 23° NNE 23:27:42 23° NNE
Cosmos 2333 Rocket 4.2 23:24:50 10° NNE 23:25:38 11° NNE 23:25:38 11° NNE
USA 234 3.2 23:28:49 10° ESE 23:35:21 74° NE 23:41:52 10° NW
Meteor 2-15 Rocket 4.4 23:30:17 10° S 23:36:18 63° E 23:42:20 10° NNE
CZ-2C R/B 2.4 23:31:27 10° NNE 23:36:39 83° ESE 23:41:49 10° SSW
SKYMED 3 4.5 23:34:12 12° NNE 23:38:14 87° ESE 23:42:34 10° SSW
NOSS 3-3 (A) 4.2 23:36:39 10° S 23:41:51 42° ESE 23:43:32 34° ENE
NOSS 3-3 (C) 4.2 23:36:46 10° S 23:41:57 42° ESE 23:43:37 34° ENE
Cosmos 1328 Rocket 4.3 23:38:00 10° SSW 23:42:21 55° W 23:46:44 10° N
Cosmos 1933 Rocket 3.6 23:38:07 10° N 23:42:22 50° E 23:46:34 10° SSE
Cosmos 1666 4.0 23:39:12 10° NNW 23:42:41 39° W 23:46:09 10° SSW
Okean O Rocket 1.5 23:42:16 10° SSE 23:46:43 79° ENE 23:51:11 10° N
USA 307 4.2 23:44:02 10° NNW 23:47:06 26° N 23:47:06 26° N
Cosmos 1470 Rocket 3.6 23:43:52 10° N 23:48:20 83° W 23:52:49 10° S
CZ-4B R/B 3.3 23:46:35 10° S 23:51:59 76° WSW 23:57:21 10° NNW
CZ-4C R/B 4.0 23:54:58 34° S 23:54:58 34° S 23:57:03 10° S
ATLAS 5 CENTAUR R/B 3.0 23:51:28 10° NNW 23:54:52 29° N 23:54:52 29° N
